IRIDIUM 33 DEB, 34651

Orbit data source: Space-Track

IRIDIUM 33 DEB, 34651 is space debris in LEO originally from a launch on Sun, 14 Sep 1997 UTC launched from the Tyuratam Missile And Space Complex (TTMTR). The debris from Iridium 33, an American commercial communications satellite, has been tracked extensively since its accidental collision with the defunct Russian satellite Cosmos 2251 in 2009. This event, occurring at high speed in low Earth orbit (LEO), generated thousands of pieces of space debris, significantly increasing the risk of further collisions. The Iridium 33 debris cloud has impacted space traffic management and orbital debris mitigation strategies, making it a subject of ongoing study in space situational awareness.

Loading next visibility...
Identifier
34651, 1997-051KC
Orbit
LEO
Country
Flag of USUS
Related business
Manufacturer
Unknown
Mission
Spacecraft
Bus & Motor
Unknown
Mass
Unknown
Launch date (UTC)
1997-09-14 (28 years ago)
Launch vehicle
Unknown
Launch site
Tyuratam Missile And Space Complex (TTMTR)
Object type
Payload
Rocket body
Debris
Shape & HBR
Unknown shape, 0.1 m
Radar Cross Section
Small (<0.1 m²)

Expand to show TLE details & history
Last TLE update: 7 hours ago

TLE from 7 hours ago
0 IRIDIUM 33 DEB
1 34651U 97051KC  25351.87321250  .00006428  00000-0  24199-2 0  9992
2 34651  86.2826 138.3936 0142240 187.6820 172.2195 14.25899188859690
Epoch: 2025-12-17T20:57Z
TLE epoch observation values (Epoch: 2025-12-17T20:57:25.559Z)
Latitude
0.00001°
Longitude
97.30027°
Altitude
909.796 km
Speed
7.345 km/s
True Right ascension
09h 13m 34s
True Declination
0° 00' 00"
Sunlit
Object was in full shadow at epoch
Visualization orbit readout
Latitude
Unknown
Longitude
Unknown
Altitude
Unknown
Speed
Unknown
Apparent Right ascension
Unknown
Apparent Declination
Unknown
Sunlit
N/A
Visualization observer readout
Local Sidereal Time
02:45:28
Azimuth
Unknown
Elevation
Unknown
Doppler factor
Unknown
Orbital elements
Apogee altitude
904.585 km
Perigee altitude
700.312 km
Semi-major axis
7,180.586 km
Eccentricity
0.01422
Inclination
86.2826°
RAAN
138.3936°
Arg. of periapsis
187.682°
True anomaly
172.43634°
Mean anomaly
172.2195°
Eccentric anomaly
172.3283°
Mean motion
3.567 °/min
Orbital period
100.93 mins
BSTAR
0.0024199
Loading maneuver chart data...
Computing Atmospheric mass density...

Documentation

Showing up to 5 results
|